Location: Le Hiès Ruisseau
(43.3000°N, 0.4500°W)
Time: 02:36:01
(UTC+00:00)

Cosmos 2228 - Pass Details

Date: 28 January 2023
Orbit: 585 x 612 km, 82.5° (Epoch: 27 March)

Event Time Altitude Azimuth Distance (km) Brightness Sun altitude
Rises 18:59:49 0° 348° (NNW) 2,829 6.5 -20.4°
Reaches altitude 10° 19:02:02 10° 346° (NNW) 1,920 5.7 -20.8°
Maximum altitude 19:06:13 65° 265° (W) 647 3.3 -21.5°
Drops below altitude 10° 19:10:23 10° 183° (S) 1,901 5.6 -22.3°
Sets 19:12:34 0° 181° (S) 2,797 6.5 -22.7°
